TimeEST,TemperatureF,Dew PointF,Humidity,Sea Level PressureIn,VisibilityMPH,Wind Direction,Wind SpeedMPH,Gust SpeedMPH,PrecipitationIn,Events,Conditions,WindDirDegrees,DateUTC
12:54 AM,36.0,19.9,52,29.99,9.0,WNW,19.6,32.2,0.00,Snow,Light Snow,290,2012-12-30 05:54:00
1:54 AM,35.1,21.0,57,30.01,9.0,WNW,24.2,33.4,0.00,Snow,Light Snow,290,2012-12-30 06:54:00
2:54 AM,35.1,18.0,50,30.04,9.0,NW,18.4,31.1,0.00,Snow,Light Snow,310,2012-12-30 07:54:00
3:54 AM,35.1,17.1,48,30.08,9.0,WNW,18.4,31.1,0.00,Snow,Light Snow,290,2012-12-30 08:54:00
4:54 AM,33.1,17.1,52,30.12,10.0,NW,17.3,28.8,0.00,,Overcast,310,2012-12-30 09:54:00
5:54 AM,32.0,17.1,54,30.17,10.0,WNW,17.3,28.8,N/A,,Mostly Cloudy,300,2012-12-30 10:54:00
6:54 AM,30.9,15.1,52,30.20,10.0,WNW,24.2,32.2,N/A,,Partly Cloudy,300,2012-12-30 11:54:00
7:54 AM,30.9,16.0,54,30.25,10.0,WNW,16.1,26.5,N/A,,Partly Cloudy,290,2012-12-30 12:54:00
8:54 AM,32.0,16.0,52,30.30,10.0,WNW,15.0,28.8,N/A,,Scattered Clouds,300,2012-12-30 13:54:00
9:54 AM,33.1,17.1,52,30.32,10.0,NW,9.2,21.9,N/A,,Partly Cloudy,310,2012-12-30 14:54:00
10:54 AM,35.1,17.1,48,30.33,10.0,West,16.1,20.7,N/A,,Partly Cloudy,280,2012-12-30 15:54:00
11:54 AM,37.9,17.1,43,30.31,10.0,WNW,11.5,-,N/A,,Partly Cloudy,300,2012-12-30 16:54:00
12:54 PM,37.9,17.1,43,30.30,10.0,West,15.0,31.1,N/A,,Partly Cloudy,280,2012-12-30 17:54:00
1:54 PM,39.0,16.0,39,30.30,10.0,NNW,13.8,25.3,N/A,,Partly Cloudy,330,2012-12-30 18:54:00
2:54 PM,39.0,15.1,38,30.32,10.0,WNW,18.4,29.9,N/A,,Clear,300,2012-12-30 19:54:00
3:54 PM,37.9,15.1,39,30.36,10.0,WNW,12.7,25.3,N/A,,Clear,300,2012-12-30 20:54:00
4:54 PM,36.0,15.1,43,30.35,10.0,NW,11.5,-,N/A,,Clear,310,2012-12-30 21:54:00
5:54 PM,32.0,15.1,50,30.35,10.0,WNW,8.1,-,N/A,,Clear,300,2012-12-30 22:54:00
6:54 PM,33.1,15.1,48,30.38,10.0,Variable,3.5,-,N/A,,Clear,0,2012-12-30 23:54:00
7:54 PM,32.0,16.0,52,30.40,10.0,West,10.4,17.3,N/A,,Clear,260,2012-12-31 00:54:00
8:54 PM,30.9,16.0,54,30.39,10.0,WNW,10.4,-,N/A,,Clear,290,2012-12-31 01:54:00
9:54 PM,32.0,15.1,50,30.39,10.0,NW,10.4,-,N/A,,Clear,310,2012-12-31 02:54:00
10:54 PM,30.9,15.1,52,30.39,10.0,SW,3.5,-,N/A,,Clear,230,2012-12-31 03:54:00
11:54 PM,30.9,16.0,54,30.38,10.0,West,9.2,-,N/A,,Clear,280,2012-12-31 04:54:00